Rbgn^[z[y[W
メイン
   新天体発見情報
     Comet P/1819 W1 = 2003 WY25 (Blanpain)
投稿するにはまず登録を

フラット表示 前のトピック | 次のトピック
投稿者 スレッド
佐藤裕久
投稿日時: 2013-7-9 6:32
モデレータ
登録日: 2005-6-12
居住地: 日本
投稿: 1977
オンライン
Comet P/1819 W1 = 2003 WY25 (Blanpain)

Peter Veres, Richard WainscoatとHenry Hsiehの通報によると7月4.46日UT、Haleakalaにある
1.8-m "Pan-STARRS 1"望遠鏡によって得た画像から20.1等の彗星を発見した。
小惑星センターのNEOCP webpageに公表された。G. V. Williamsは、10年前Catalina で発見され
た小惑星 2003 WY25と同一であると判断しMPEC 2013-N20に発表した。
Veres他がこの天体は核の集光部からコマが少なくとも10" 拡がっているのに気づいた。7月4日の画像
から南東に延びた非対称の構造をしているようであった。
7月5.37日UT、WainscoatとMarco Micheliによって3.6-m Canada-France-Hawaii Telescopeによる
フォローアップ観測が行われ、南東に8"の尾と非対称のコマが見られた。
さらに、小惑星センターのNEOCP webpageに公表後、佐藤英貴氏(東京都大田区, iTelescope天文台, 
0.51-m f/6.8 アストログラフ, f/4.5 レデューサー付, Siding Spring, N.S.W.遠隔操作)によって
彗星状と観測された。
Micheliは、2003年に2003 WY25は長い間見失われていたD/1819 W1 (Blanpain)とまったく同一であ
ることに気づいていた。
中野主一氏(兵庫県洲本市)は、P/1819 W1と2003 WY25の同一性を仮定した氏の予報(NK 1168)は、
Delta(T)が-0.04 dayで、1995年7月に木星から0.24 AUを通過したことを付け加えている。

発見位置は次のとおり、

     2003 UT             R.A. (2000) Decl.       Mag.
     Nov. 22.15395    0 08 44.64   -16 03 51.2   18.1
          22.16521    0 08 44.34   -16 03 27.5   18.0
          22.17650    0 08 44.02   -16 03 02.9   17.7
          22.18779    0 08 43.59   -16 02 39.0   17.9
          22.24724    0 08 42.10   -16 00 27.5   18.0

     2013 UT             R.A. (2000) Decl.       Mag.
     July  4.46054   19 42 54.82   -26 40 10.9   20.1
           4.47313   19 42 54.10   -26 40 13.1   20.2

軌道要素、位置推算表は次のとおり、

Orbital elements:
    P/1819 W1 = 2003 WY25 (Blanpain)
Epoch 2009 May 9.0 TT = JDT 2454960.5
T 2009 Apr. 30.58486 TT                                 MPC
q   0.9651259            (2000.0)            P               Q
n   0.18497204     Peri.    9.80726     +0.19556102     -0.97599437
a   3.0506941      Node    68.96436     +0.89266428     +0.13667555
e   0.6836373      Incl.    5.89549     +0.40608666     +0.16957236
P   5.33
From 275 observations 1819 Dec. 14-2013 July 6, mean residual 0".77.
   Assumed non-gravitational parameters A1 = +0.10 +/- 0.00,
   A2 = -0.0054 +/- 0.0001 due to S. Nakano.

    P/1819 W1 = 2003 WY25 (Blanpain)
Epoch 2003 Dec. 27.0 TT = JDT 2453000.5
T 2003 Dec. 11.57753 TT                                 MPC
q   1.0000683            (2000.0)            P               Q
n   0.18210730     Peri.    9.06939     +0.20097548     -0.97481347
a   3.0826045      Node    69.38276     +0.89216083     +0.14138446
e   0.6755768      Incl.    5.92915     +0.40454655     +0.17247935
P   5.41
From 275 observations 1819 Dec. 14-2013 July 6, mean residual 0".77.
   Assumed non-gravitational parameters A1 = +0.10 +/- 0.00,
   A2 = -0.0054 +/- 0.0001 due to S. Nakano.

    P/1819 W1 = 2003 WY25 (Blanpain)
Epoch 2014 Aug. 11.0 TT = JDT 2456880.5
T 2014 Aug. 28.20557 TT                                 MPC
q   0.9608572            (2000.0)            P               Q
n   0.18529700     Peri.    9.85101     +0.19526295     -0.97604853
a   3.0471263      Node    68.93831     +0.89268124     +0.13636792
e   0.6846677      Incl.    5.89999     +0.40619279     +0.16950826
P   5.32
From 275 observations 1819 Dec. 14-2013 July 6, mean residual 0".77.
   Assumed non-gravitational parameters A1 = +0.10 +/- 0.00,
   A2 = -0.0054 +/- 0.0001 due to S. Nakano.

Ephemeris:
    P/1819 W1 (Blanpain)
Date    TT    R. A. (2000) Decl.     Delta      r     Elong.  Phase   m1
2013 06 07    20 04 02.8 -25 10 37   3.1905  4.0039   138.1     9.7  18.5
...
2013 06 22    19 54 44.2 -25 57 24   2.9930  3.9342   154.4     6.4  18.3
...
2013 06 30    19 48 11.3 -26 23 52   2.9115  3.8960   163.2     4.3  18.2
...
2013 07 06    19 42 42.1 -26 43 21   2.8625  3.8668   169.6     2.7  18.2
2013 07 07    19 41 44.9 -26 46 30   2.8553  3.8619   170.6     2.5  18.1
2013 07 08    19 40 47.1 -26 49 38   2.8485  3.8570   171.5     2.2  18.1
...
2013 07 14    19 34 51.1 -27 07 36   2.8142  3.8273   174.6     1.4  18.1
...
2013 07 22    19 26 43.6 -27 28 41   2.7857  3.7871   168.7     3.0  18.0
...
2013 08 06    19 12 04.8 -27 56 47   2.7839  3.7096   151.9     7.4  17.9

Computer: Williams

(CBET 3574、MPEC 2013-N21)
フラット表示 前のトピック | 次のトピック

題名 投稿者 日時
 » Comet P/1819 W1 = 2003 WY25 (Blanpain) 佐藤裕久 2013-7-9 6:32

投稿するにはまず登録を
 
© 1999 Tsutomu Seki.